• în România
  • Lista ţărilor
  • Pe 7 zile
  • Temperatura apei
  • Hartă satelitară
  • Meteo pe hartă
  • Widget-uri
  • user-avatar
    Intrare

    Meteo pe oră la Koprivnica

    Astăzi, 26 Februarie, Luni

    Timp Temperatura Precipitaţii Vânt Presiune Umiditate
    00:00 -14°C° 0 mm 4 m/s 752 mmHg 84%
    01:00 -14°C° 0 mm 4 m/s 752 mmHg 85%
    02:00 -15°C° 0 mm 4 m/s 752 mmHg 85%
    03:00 -15°C° 0 mm 4 m/s 751 mmHg 86%
    04:00 -15°C° 0 mm 4 m/s 751 mmHg 86%
    05:00 -15°C° 0 mm 4 m/s 751 mmHg 85%
    06:00 -15°C° 0 mm 4 m/s 751 mmHg 84%
    07:00 -14°C° 0 mm 5 m/s 751 mmHg 84%
    08:00 -14°C° 0,1 mm 5 m/s 751 mmHg 83%
    09:00 -14°C° 0,1 mm 6 m/s 750 mmHg 82%
    10:00 -12°C° 0,1 mm 6 m/s 750 mmHg 82%
    11:00 -11°C° 0,2 mm 6 m/s 749 mmHg 81%
    12:00 -12°C° 0,2 mm 7 m/s 749 mmHg 81%
    13:00 -11°C° 0,2 mm 7 m/s 748 mmHg 80%
    14:00 -10°C° 0,2 mm 6 m/s 748 mmHg 80%
    15:00 -10°C° 0,2 mm 6 m/s 748 mmHg 80%
    16:00 -10°C° 0,2 mm 6 m/s 748 mmHg 81%
    17:00 -10°C° 0,2 mm 6 m/s 748 mmHg 82%
    18:00 -10°C° 0,2 mm 5 m/s 748 mmHg 84%
    19:00 -11°C° 0,2 mm 5 m/s 748 mmHg 85%
    20:00 -11°C° 0,2 mm 5 m/s 747 mmHg 86%
    21:00 -11°C° 0,2 mm 5 m/s 747 mmHg 87%
    22:00 -11°C° 0,2 mm 5 m/s 747 mmHg 88%
    23:00 -11°C° 0,3 mm 5 m/s 747 mmHg 88%

    Mâine, 27 Februarie, Marţi

    Timp Temperatura Precipitaţii Vânt Presiune Umiditate
    00:00 -12°C° 0,3 mm 6 m/s 747 mmHg 89%
    01:00 -12°C° 0,3 mm 6 m/s 746 mmHg 89%
    02:00 -12°C° 0,3 mm 5 m/s 746 mmHg 90%
    03:00 -12°C° 0,3 mm 5 m/s 746 mmHg 90%
    04:00 -12°C° 0,3 mm 5 m/s 746 mmHg 90%
    05:00 -13°C° 0,2 mm 5 m/s 746 mmHg 90%
    06:00 -13°C° 0,2 mm 5 m/s 746 mmHg 89%
    07:00 -13°C° 0,2 mm 5 m/s 746 mmHg 89%
    08:00 -13°C° 0,2 mm 5 m/s 746 mmHg 88%
    09:00 -12°C° 0,2 mm 5 m/s 747 mmHg 87%
    10:00 -12°C° 0,2 mm 5 m/s 747 mmHg 86%
    11:00 -11°C° 0,1 mm 5 m/s 747 mmHg 85%
    12:00 -11°C° 0,1 mm 5 m/s 747 mmHg 84%
    13:00 -10°C° 0,1 mm 5 m/s 747 mmHg 83%
    14:00 -10°C° 0,1 mm 5 m/s 747 mmHg 83%
    15:00 -9°C° 0,1 mm 4 m/s 747 mmHg 84%
    16:00 -9°C° 0,1 mm 4 m/s 747 mmHg 84%
    17:00 -9°C° 0 mm 3 m/s 747 mmHg 86%
    18:00 -10°C° 0 mm 3 m/s 748 mmHg 88%
    19:00 -10°C° 0 mm 2 m/s 748 mmHg 91%
    20:00 -10°C° 0 mm 2 m/s 748 mmHg 90%
    21:00 -12°C° 0 mm 2 m/s 749 mmHg 90%
    22:00 -12°C° 0 mm 2 m/s 749 mmHg 90%
    23:00 -13°C° 0 mm 2 m/s 749 mmHg 91%

    Poimâine, 28 Februarie, Miercuri

    Timp Temperatura Precipitaţii Vânt Presiune Umiditate
    00:00 -13°C° 0 mm 2 m/s 750 mmHg 91%
    01:00 -13°C° 0 mm 2 m/s 750 mmHg 91%
    02:00 -14°C° 0 mm 2 m/s 750 mmHg 92%
    03:00 -14°C° 0 mm 2 m/s 750 mmHg 92%
    04:00 -14°C° 0 mm 2 m/s 750 mmHg 93%
    05:00 -14°C° 0 mm 2 m/s 751 mmHg 92%
    06:00 -14°C° 0 mm 2 m/s 751 mmHg 92%
    07:00 -14°C° 0 mm 2 m/s 751 mmHg 92%
    08:00 -13°C° 0 mm 2 m/s 752 mmHg 89%
    09:00 -10°C° 0 mm 2 m/s 752 mmHg 85%
    10:00 -9°C° 0 mm 3 m/s 752 mmHg 81%
    11:00 -8°C° 0 mm 3 m/s 752 mmHg 80%
    12:00 -8°C° 0 mm 3 m/s 752 mmHg 78%
    13:00 -7°C° 0 mm 3 m/s 752 mmHg 77%
    14:00 -6°C° 0 mm 2 m/s 753 mmHg 78%
    15:00 -6°C° 0 mm 2 m/s 753 mmHg 78%
    16:00 -6°C° 0 mm 2 m/s 753 mmHg 79%
    17:00 -7°C° 0 mm 1 m/s 753 mmHg 82%
    18:00 -8°C° 0 mm 1 m/s 753 mmHg 86%
    19:00 -10°C° 0 mm 1 m/s 754 mmHg 89%
    20:00 -11°C° 0 mm 1 m/s 754 mmHg 89%
    21:00 -11°C° 0 mm 1 m/s 755 mmHg 89%
    22:00 -12°C° 0 mm 1 m/s 755 mmHg 89%
    23:00 -12°C° 0 mm 1 m/s 755 mmHg 88%

    1 Martie, Joi

    Timp Temperatura Precipitaţii Vânt Presiune Umiditate
    00:00 -13°C° 0 mm 0 m/s 755 mmHg 88%
    01:00 -13°C° 0 mm 0 m/s 755 mmHg 88%
    02:00 -13°C° 0 mm 0 m/s 754 mmHg 88%
    03:00 -14°C° 0 mm 0 m/s 754 mmHg 88%
    04:00 -14°C° 0 mm 0 m/s 753 mmHg 88%
    05:00 -14°C° 0 mm 0 m/s 753 mmHg 89%
    06:00 -14°C° 0 mm 1 m/s 753 mmHg 89%
    07:00 -14°C° 0 mm 1 m/s 753 mmHg 90%
    08:00 -12°C° 0 mm 1 m/s 753 mmHg 87%
    09:00 -10°C° 0 mm 1 m/s 753 mmHg 85%
    10:00 -7°C° 0 mm 1 m/s 753 mmHg 82%
    11:00 -7°C° 0 mm 2 m/s 752 mmHg 82%
    12:00 -6°C° 0 mm 2 m/s 751 mmHg 81%
    13:00 -5°C° 0 mm 2 m/s 751 mmHg 81%
    14:00 -5°C° 0 mm 2 m/s 750 mmHg 82%
    15:00 -4°C° 0 mm 2 m/s 750 mmHg 83%
    16:00 -4°C° 0 mm 2 m/s 749 mmHg 83%
    17:00 -5°C° 0 mm 2 m/s 749 mmHg 86%
    18:00 -5°C° 0 mm 2 m/s 749 mmHg 89%
    19:00 -7°C° 0 mm 3 m/s 749 mmHg 92%
    20:00 -7°C° 0,2 mm 3 m/s 749 mmHg 93%
    21:00 -6°C° 0,2 mm 2 m/s 748 mmHg 94%
    22:00 -6°C° 0,2 mm 2 m/s 748 mmHg 95%
    23:00 -6°C° 0,4 mm 2 m/s 748 mmHg 96%

    2 Martie, Vineri

    Timp Temperatura Precipitaţii Vânt Presiune Umiditate
    00:00 -6°C° 0,4 mm 2 m/s 747 mmHg 96%
    01:00 -6°C° 0,4 mm 2 m/s 747 mmHg 96%
    02:00 -6°C° 0,2 mm 2 m/s 746 mmHg 96%
    03:00 -6°C° 0,2 mm 2 m/s 746 mmHg 96%
    04:00 -6°C° 0,2 mm 2 m/s 745 mmHg 96%
    05:00 -6°C° 0,2 mm 2 m/s 745 mmHg 96%
    06:00 -6°C° 0,2 mm 2 m/s 745 mmHg 96%
    07:00 -6°C° 0,2 mm 2 m/s 745 mmHg 96%
    08:00 -6°C° 0,2 mm 2 m/s 745 mmHg 95%
    09:00 -5°C° 0,2 mm 2 m/s 745 mmHg 94%
    10:00 -4°C° 0,2 mm 2 m/s 745 mmHg 93%
    11:00 -4°C° 0,1 mm 2 m/s 744 mmHg 93%
    12:00 -3°C° 0,1 mm 2 m/s 744 mmHg 93%
    13:00 0°C° 0,1 mm 1 m/s 744 mmHg 93%
    14:00 0°C° 0 mm 1 m/s 744 mmHg 93%
    15:00 0°C° 0 mm 1 m/s 743 mmHg 94%
    16:00 +1°C° 0 mm 1 m/s 743 mmHg 94%
    17:00 0°C° 0 mm 1 m/s 743 mmHg 95%
    18:00 0°C° 0 mm 1 m/s 743 mmHg 96%
    19:00 0°C° 0 mm 1 m/s 743 mmHg 96%
    20:00 -1°C° 0 mm 1 m/s 743 mmHg 97%
    21:00 -1°C° 0 mm 1 m/s 743 mmHg 97%
    22:00 -1°C° 0 mm 1 m/s 743 mmHg 97%
    23:00 -1°C° 0 mm 1 m/s 743 mmHg 97%

    3 Martie, Sâmbătă

    Timp Temperatura Precipitaţii Vânt Presiune Umiditate
    00:00 -1°C° 0 mm 1 m/s 743 mmHg 97%
    01:00 -1°C° 0 mm 1 m/s 742 mmHg 97%
    02:00 -1°C° 0 mm 1 m/s 742 mmHg 97%
    03:00 -1°C° 0 mm 1 m/s 741 mmHg 97%
    04:00 -3°C° 0 mm 2 m/s 741 mmHg 97%
    05:00 -2°C° 0,1 mm 2 m/s 741 mmHg 97%
    06:00 -2°C° 0,1 mm 2 m/s 740 mmHg 97%
    07:00 -2°C° 0,1 mm 2 m/s 740 mmHg 97%
    08:00 +1°C° 0,1 mm 1 m/s 740 mmHg 98%
    09:00 +2°C° 0,1 mm 1 m/s 740 mmHg 98%
    10:00 +2°C° 0,1 mm 1 m/s 740 mmHg 99%
    11:00 +3°C° 0,5 mm 1 m/s 740 mmHg 99%
    12:00 +3°C° 0,5 mm 1 m/s 740 mmHg 99%
    13:00 +3°C° 0,5 mm 1 m/s 740 mmHg 99%
    14:00 +3°C° 0,5 mm 1 m/s 740 mmHg 99%
    15:00 +3°C° 0,5 mm 1 m/s 740 mmHg 99%
    16:00 +3°C° 0,5 mm 1 m/s 740 mmHg 99%
    17:00 +3°C° 0,1 mm 1 m/s 740 mmHg 99%
    18:00 +2°C° 0,1 mm 0 m/s 740 mmHg 99%
    19:00 +1°C° 0,1 mm 0 m/s 740 mmHg 98%
    20:00 +1°C° 0 mm 0 m/s 740 mmHg 98%
    21:00 +1°C° 0 mm 0 m/s 740 mmHg 98%
    22:00 +1°C° 0 mm 0 m/s 740 mmHg 98%
    23:00 +1°C° 0 mm 0 m/s 740 mmHg 98%
    Arată mai mult